Location: Navalmoral
(40.4603°N, 4.7686°W)
Time: 10:14:05
(UTC+00:00)

Cosmos 1340 Rocket - Pass Details

Date: 05 August 2024
Orbit: 503 x 538 km, 81.2° (Epoch: 19 September)

Event Time Altitude Azimuth Distance (km) Brightness Sun altitude
Rises 22:27:50 0° 352° (N) 2,703 7.4 -26.7°
Reaches altitude 10° 22:30:01 10° 354° (N) 1,810 6.3 -27.0°
Enters shadow 22:32:34 38° 3° (N) 842 4.1 -27.2°
